Location: Newark
(45.5167°N, 11.1667°E)
Time: 12:51:37
(UTC+00:00)

Explorer 7 - Pass Details

Date: 19 December 2019
Orbit: 485 x 679 km, 50.3° (Epoch: 16 January)

Event Time Altitude Azimuth Distance (km) Brightness Sun altitude
Rises 15:34:14 0° 288° (WNW) 2,995 11.2 -0.9°
Reaches altitude 10° 15:36:37 10° 294° (WNW) 2,099 10.3 -1.3°
Maximum altitude 15:41:24 54° 11° (NNE) 828 7.5 -2.0°
Drops below altitude 10° 15:46:13 10° 89° (E) 2,114 9.3 -2.7°
Sets 15:48:38 0° 94° (E) 3,019 10.1 -3.1°
